H1 CPF 2 NER 2025 8 3 9 215 01 glonass129 H2 1106402 9129 37868 2025 8 3 0 0 0 2025 8 6 23 45 0 900 1 1 0 0 0 1 H9 10 0 60890 0.00000 0 -8619131.151 19423232.484 -14114294.637 10 0 60890 900.00000 0 -9523508.322 20728823.614 -11432018.128 10 0 60890 1800.00000 0 -10126283.148 21819839.693 -8527869.415 10 0 60890 2700.00000 0 -10450240.791 22641898.190 -5458316.091 10 0 60890 3600.00000 0 -10529025.042 23148405.399 -2282957.230 10 0 60890 4500.00000 0 -10405462.324 23302561.534 936633.574 10 0 60890 5400.00000 0 -10129511.848 23078971.724 4138097.747 10 0 60890 6300.00000 0 -9755929.655 22464796.774 7259491.064 10 0 60890 7200.00000 0 -9341745.570 21460396.879 10240470.074 10 0 60890 8100.00000 0 -8943659.327 20079442.552 13023443.666 10 0 60890 9000.00000 0 -8615464.821 18348488.929 15554668.793 10 0 60890 9900.00000 0 -8405609.799 16306031.544 17785270.675 10 0 60890 10800.00000 0 -8354992.308 14001082.634 19672169.496 10 0 60890 11700.00000 0 -8495085.193 11491326.252 21178897.424 10 0 60890 12600.00000 0 -8846466.359 8840927.390 22276291.728 10 0 60890 13500.00000 0 -9417815.919 6118084.018 22943051.942 10 0 60890 14400.00000 0 -10205422.364 3392421.200 23166151.234 10 0 60890 15300.00000 0 -11193219.288 732332.876 22941094.346 10 0 60890 16200.00000 0 -12353352.667 -1797620.907 22272016.933 10 0 60890 17100.00000 0 -13647257.110 -4139155.519 21171623.505 10 0 60890 18000.00000 0 -15027198.592 -6242442.259 19660963.764 10 0 60890 18900.00000 0 -16438221.800 -8067938.292 17769049.803 10 0 60890 19800.00000 0 -17820423.075 -9587790.226 15532319.373 10 0 60890 20700.00000 0 -19111455.784 -10786752.507 12993953.351 10 0 60890 21600.00000 0 -20249164.484 -11662581.516 10203058.485 10 0 60890 22500.00000 0 -21174237.790 -12225887.765 7213729.358 10 0 60890 23400.00000 0 -21832768.094 -12499451.204 4084006.475 10 0 60890 24300.00000 0 -22178609.142 -12517027.412 874749.986 10 0 60890 25200.00000 0 -22175430.185 -12321694.287 -2351549.162 10 0 60890 26100.00000 0 -21798377.539 -11963808.937 -5531996.774 10 0 60890 27000.00000 0 -21035270.727 -11498661.626 -8604536.566 10 0 60890 27900.00000 0 -19887279.970 -10983927.196 -11509179.033 10 0 60890 28800.00000 0 -18369054.013 -10477023.628 -14189192.050 10 0 60890 29700.00000 0 -16508291.012 -10032491.690 -16592227.925 10 0 60890 30600.00000 0 -14344769.242 -9699508.974 -18671362.985 10 0 60890 31500.00000 0 -11928877.915 -9519645.824 -20386027.717 10 0 60890 32400.00000 0 -9319709.913 -9524960.063 -21702808.093 10 0 60890 33300.00000 0 -6582797.073 -9736512.620 -22596101.703 10 0 60890 34200.00000 0 -3787583.870 -10163367.688 -23048615.658 10 0 60890 35100.00000 0 -1004746.255 -10802119.910 -23051696.812 10 0 60890 36000.00000 0 1696531.448 -11636968.242 -22605488.556 10 0 60890 36900.00000 0 4251207.305 -12640332.489 -21718912.136 10 0 60890 37800.00000 0 6600849.589 -13773985.340 -20409474.113 10 0 60890 38700.00000 0 8695819.369 -14990650.738 -18702905.121 10 0 60890 39600.00000 0 10497078.106 -16235999.799 -16632638.375 10 0 60890 40500.00000 0 11977546.847 -17450958.877 -14239139.534 10 0 60890 41400.00000 0 13122962.806 -18574231.558 -11569102.243 10 0 60890 42300.00000 0 13932200.542 -19544927.713 -8674526.200 10 0 60890 43200.00000 0 14417047.447 -20305188.756 -5611696.656 10 0 60890 44100.00000 0 14601446.217 -20802698.865 -2440085.865 10 0 60890 45000.00000 0 14520238.974 -20992977.207 778801.673 10 0 60890 45900.00000 0 14217468.299 -20841355.833 3982617.692 10 0 60890 46800.00000 0 13744308.444 -20324561.338 7109369.528 10 0 60890 47700.00000 0 13156714.840 -19431835.206 10098607.718 10 0 60890 48600.00000 0 12512891.150 -18165546.999 12892579.792 10 0 60890 49500.00000 0 11870680.071 -16541275.533 15437329.246 10 0 60890 50400.00000 0 11284986.660 -14587355.047 17683719.910 10 0 60890 51300.00000 0 10805341.156 -12343905.051 19588367.671 10 0 60890 52200.00000 0 10473702.174 -9861383.446 21114463.237 10 0 60890 53100.00000 0 10322591.060 -7198721.614 22232471.658 10 0 60890 54000.00000 0 10373634.580 -4421116.941 22920696.413 10 0 60890 54900.00000 0 10636576.480 -1597571.907 23165698.119 10 0 60890 55800.00000 0 11108799.425 1201720.810 22962560.130 10 0 60890 56700.00000 0 11775378.207 3908041.493 22314995.717 10 0 60890 57600.00000 0 12609663.501 6456746.822 21235293.921 10 0 60890 58500.00000 0 13574373.756 8789707.516 19744103.758 10 0 60890 59400.00000 0 14623151.870 10857480.359 17870059.082 10 0 60890 60300.00000 0 15702523.812 12621125.012 15649249.200 10 0 60890 61200.00000 0 16754179.173 14053589.881 13124543.228 10 0 60890 62100.00000 0 17717479.540 15140608.633 10344779.095 10 0 60890 63000.00000 0 18532090.158 15881068.816 7363831.043 10 0 60890 63900.00000 0 19140624.155 16286835.842 4239572.357 10 0 60890 64800.00000 0 19491187.077 16382038.485 1032752.706 10 0 60890 65700.00000 0 19539712.741 16201844.956 -2194188.156 10 0 60890 66600.00000 0 19251989.490 15790780.640 -5378346.627 10 0 60890 67500.00000 0 18605288.523 15200658.583 -8457596.332 10 0 60890 68400.00000 0 17589522.651 14488210.933 -11371818.202 10 0 60890 69300.00000 0 16207883.798 13712522.831 -14064093.542 10 0 60890 70200.00000 0 14476929.971 12932379.174 -16481834.786 10 0 60890 71100.00000 0 12426116.214 12203638.585 -18577829.919 10 0 60890 72000.00000 0 10096788.194 11576747.881 -20311178.474 10 0 60890 72900.00000 0 7540680.272 11094504.071 -21648099.586 10 0 60890 73800.00000 0 4817981.269 10790160.052 -22562595.580 10 0 60890 74700.00000 0 1995049.646 10685955.016 -23036957.847 10 0 60890 75600.00000 0 -858125.415 10792131.928 -23062105.414 10 0 60890 76500.00000 0 -3670610.003 11106483.235 -22637750.261 10 0 60890 77400.00000 0 -6373245.650 11614443.015 -21772387.179 10 0 60890 78300.00000 0 -8901289.903 12289720.308 -20483109.618 10 0 60890 79200.00000 0 -11196867.386 13095445.227 -18795256.513 10 0 60890 80100.00000 0 -13211129.983 13985777.709 -16741898.413 10 0 60890 81000.00000 0 -14906037.560 14907909.366 -14363174.334 10 0 60890 81900.00000 0 -16255687.045 15804372.531 -11705493.549 10 0 60890 82800.00000 0 -17247136.920 16615558.015 -8820619.041 10 0 60890 83700.00000 0 -17880695.658 17282334.783 -5764651.387 10 0 60890 84600.00000 0 -18169665.079 17748660.929 -2596933.572 10 0 60890 85500.00000 0 -18139552.372 17964076.232 621101.553 10 0 60891 0.00000 0 -17826786.543 17885972.066 3827118.347 10 0 60891 900.00000 0 -17276995.113 17481544.019 6959078.938 10 0 60891 1800.00000 0 -16542915.401 16729346.449 9956430.226 10 0 60891 2700.00000 0 -15682028.353 15620384.642 12761261.047 10 0 60891 3600.00000 0 -14754014.654 14158699.703 15319404.047 10 0 60891 4500.00000 0 -13818139.202 12361422.151 17581464.190 10 0 60891 5400.00000 0 -12930672.522 10258291.910 19503755.435 10 0 60891 6300.00000 0 -12142455.758 7890663.998 21049129.200 10 0 60891 7200.00000 0 -11496709.717 5310039.979 22187680.225 10 0 60891 8100.00000 0 -11027178.238 2576184.305 22897317.536 10 0 60891 9000.00000 0 -10756682.561 -245098.719 23164190.447 10 0 60891 9900.00000 0 -10696146.648 -3084437.789 22982961.774 10 0 60891 10800.00000 0 -10844134.379 -5871517.586 22356922.818 10 0 60891 11700.00000 0 -11186918.808 -8537745.815 21297947.112 10 0 60891 12600.00000 0 -11699082.019 -11018855.921 19826282.451 10 0 60891 13500.00000 0 -12344622.349 -13257339.186 17970183.432 10 0 60891 14400.00000 0 -13078524.665 -15204606.145 15765389.412 10 0 60891 15300.00000 0 -13848729.865 -16822787.616 13254455.787 10 0 60891 16200.00000 0 -14598422.606 -18086099.836 10485949.307 10 0 60891 17100.00000 0 -15268542.158 -18981715.678 7513521.155 10 0 60891 18000.00000 0 -15800411.044 -19510104.112 4394874.389 10 0 60891 18900.00000 0 -16138370.145 -19684822.205 1190644.984 10 0 60891 19800.00000 0 -16232307.744 -19531767.079 -2036781.889 10 0 60891 20700.00000 0 -16039973.591 -19087918.352 -5224496.715 10 0 60891 21600.00000 0 -15528977.605 -18399623.698 -8310306.581 10 0 60891 22500.00000 0 -14678385.788 -17520500.138 -11233966.393 10 0 60891 23400.00000 0 -13479843.001 -16509040.617 -13938374.347 10 0 60891 24300.00000 0 -11938172.473 -15426028.490 -16370706.278 10 0 60891 25200.00000 0 -10071424.503 -14331871.036 -18483464.803 10 0 60891 26100.00000 0 -7910370.688 -13283966.700 -20235421.055 10 0 60891 27000.00000 0 -5497464.011 -12334219.234 -21592429.368 10 0 60891 27900.00000 0 -2885308.154 -11526805.269 -22528098.206 10 0 60891 28800.00000 0 -134700.516 -10896290.655 -23024303.996 10 0 60891 29700.00000 0 2687668.464 -10466175.447 -23071538.022 10 0 60891 30600.00000 0 5511762.666 -10247928.615 -22669080.309 10 0 60891 31500.00000 0 8266887.099 -10240552.259 -21824998.076 10 0 60891 32400.00000 0 10884401.464 -10430692.169 -20555970.047 10 0 60891 33300.00000 0 13300347.170 -10793288.179 -18886941.410 10 0 60891 34200.00000 0 15457878.588 -11292734.738 -16850617.598 10 0 60891 35100.00000 0 17309398.161 -11884500.621 -14486808.190 10 0 60891 36000.00000 0 18818307.887 -12517137.483 -11841634.970 10 0 60891 36900.00000 0 19960306.185 -13134590.869 -8966620.792 10 0 60891 37800.00000 0 20724178.537 -13678714.968 -5917677.944 10 0 60891 38700.00000 0 21112051.664 -14091884.365 -2754016.371 10 0 60891 39600.00000 0 21139103.469 -14319592.434 463006.502 10 0 60891 40500.00000 0 20832743.592 -14312927.182 3671071.907 10 0 60891 41400.00000 0 20231301.279 -14030820.933 6808099.048 10 0 60891 42300.00000 0 19382277.319 -13441980.109 9813434.864 10 0 60891 43200.00000 0 18340234.506 -12526415.010 12629012.140 10 0 60891 44100.00000 0 17164415.419 -11276506.245 15200454.829 10 0 60891 45000.00000 0 15916187.065 -9697563.719 17478110.647 10 0 60891 45900.00000 0 14656418.471 -7807854.880 19417992.724 10 0 60891 46800.00000 0 13442899.605 -5638100.522 20982613.795 10 0 60891 47700.00000 0 12327907.933 -3230458.077 22141698.433 10 0 60891 48600.00000 0 11356022.696 -637032.875 22872760.932 10 0 60891 49500.00000 0 10562276.729 2082023.063 23161538.655 10 0 60891 50400.00000 0 9970722.008 4860748.477 23002272.892 10 0 60891 51300.00000 0 9593468.350 7629856.659 22397831.701 10 0 60891 52200.00000 0 9430235.585 10319365.399 21359671.572 10 0 60891 53100.00000 0 9468438.729 12861266.527 19907637.352 10 0 60891 54000.00000 0 9683803.911 15192126.259 18069602.467 10 0 60891 54900.00000 0 10041490.965 17255509.655 15880954.284 10 0 60891 55800.00000 0 10497677.417 19004128.834 13383932.307 10 0 60891 56700.00000 0 11001538.989 20401625.238 10626829.823 10 0 60891 57600.00000 0 11497544.625 21423910.622 7663072.577 10 0 60891 58500.00000 0 11927969.969 22060009.285 4550190.931 10 0 60891 59400.00000 0 12235523.188 22312364.579 1348704.633 10 0 60891 60300.00000 0 12365971.289 22196595.203 -1879058.274 10 0 60891 61200.00000 0 12270654.204 21740710.111 -5070184.861 10 0 60891 62100.00000 0 11908777.958 20983814.234 -8162418.067 10 0 60891 63000.00000 0 11249387.100 19974359.272 -11095388.986 10 0 60891 63900.00000 0 10272930.017 18768013.767 -13811814.693 10 0 60891 64800.00000 0 8972348.069 17425243.392 -16258636.166 10 0 60891 65700.00000 0 7353639.966 16008705.103 -18388072.154 10 0 60891 66600.00000 0 5435875.583 14580566.980 -20158566.661 10 0 60891 67500.00000 0 3250657.196 13199868.666 -21535610.267 10 0 60891 68400.00000 0 841050.054 11920035.371 -22492418.446 10 0 60891 69300.00000 0 -1739972.904 10786651.443 -23010453.300 10 0 60891 70200.00000 0 -4431506.629 9835587.881 -23079778.784 10 0 60891 71100.00000 0 -7167026.476 9091562.516 -22699243.085 10 0 60891 72000.00000 0 -9876940.113 8567192.673 -21876485.623 10 0 60891 72900.00000 0 -12491271.540 8262578.644 -20627769.768 10 0 60891 73800.00000 0 -14942364.759 8165433.498 -18977645.928 10 0 60891 74700.00000 0 -17167494.216 8251751.355 -16958453.008 10 0 60891 75600.00000 0 -19111273.659 8486983.472 -14609669.392 10 0 60891 76500.00000 0 -20727763.926 8827670.062 -11977127.353 10 0 60891 77400.00000 0 -21982193.315 9223456.895 -9112107.423 10 0 60891 78300.00000 0 -22852220.747 9619409.789 -6070331.274 10 0 60891 79200.00000 0 -23328691.380 9958528.114 -2910873.432 10 0 60891 80100.00000 0 -23415855.663 10184350.541 304986.528 10 0 60891 81000.00000 0 -23131045.244 10243543.025 3514948.881 10 0 60891 81900.00000 0 -22503821.649 10088360.227 6656892.967 10 0 60891 82800.00000 0 -21574635.307 9678877.422 9670067.969 10 0 60891 83700.00000 0 -20393052.418 8984899.877 12496253.122 10 0 60891 84600.00000 0 -19015624.579 7987470.352 15080866.133 10 0 60891 85500.00000 0 -17503490.272 6679912.193 17373999.839 10 0 60892 0.00000 0 -15919807.980 5068364.788 19331368.584 10 0 60892 900.00000 0 -14327126.068 3171787.848 20915148.757 10 0 60892 1800.00000 0 -12784799.773 1021435.712 22094696.272 10 0 60892 2700.00000 0 -11346558.452 -1340180.821 22847132.067 10 0 60892 3600.00000 0 -10058324.893 -3860801.987 23157782.571 10 0 60892 4500.00000 0 -8956375.340 -6480336.639 23020468.199 10 0 60892 5400.00000 0 -8065916.052 -9133113.045 22437634.033 10 0 60892 6300.00000 0 -7400135.339 -11750372.476 21420319.416 10 0 60892 7200.00000 0 -6959770.828 -14262904.757 19987965.745 10 0 60892 8100.00000 0 -6733210.834 -16603718.681 18168064.410 10 0 60892 9000.00000 0 -6697126.806 -18710637.952 15995649.532 10 0 60892 9900.00000 0 -6817611.846 -20528715.472 13512643.112 10 0 60892 10800.00000 0 -7051779.077 -22012365.432 10767063.040 10 0 60892 11700.00000 0 -7349753.922 -23127123.481 7812107.391 10 0 60892 12600.00000 0 -7656977.247 -23850959.975 4705131.348 10 0 60892 13500.00000 0 -7916722.405 -24175089.534 1506535.737 10 0 60892 14400.00000 0 -8072719.279 -24104241.004 -1721411.402 10 0 60892 15300.00000 0 -8071773.036 -23656374.667 -4915796.757 10 0 60892 16200.00000 0 -7866264.716 -22861857.183 -8014302.267 10 0 60892 17100.00000 0 -7416425.247 -21762128.178 -10956438.457 10 0 60892 18000.00000 0 -6692283.732 -20407914.490 -13684744.541 10 0 60892 18900.00000 0 -5675204.664 -18857067.912 -16145929.840 10 0 60892 19800.00000 0 -4358946.316 -17172118.684 -18291932.259 10 0 60892 20700.00000 0 -2750193.317 -15417649.428 -20080871.410 10 0 60892 21600.00000 0 -868539.178 -13657601.855 -21477876.461 10 0 60892 22500.00000 0 1254081.591 -11952631.340 -22455771.730 10 0 60892 23400.00000 0 3574488.391 -10357621.999 -22995606.300 10 0 60892 24300.00000 0 6039830.403 -8919467.580 -23087017.512 10 0 60892 25200.00000 0 8589576.873 -7675211.562 -22728421.871 10 0 60892 26100.00000 0 11157837.710 -6650624.009 -21927030.625 10 0 60892 27000.00000 0 13675916.543 -5859273.603 -20698690.930 10 0 60892 27900.00000 0 16074988.901 -5302131.841 -19067557.091 10 0 60892 28800.00000 0 18288793.238 -4967723.570 -17065599.710 10 0 60892 29700.00000 0 20256222.505 -4832814.725 -14731963.762 10 0 60892 30600.00000 0 21923708.622 -4863605.496 -12112189.365 10 0 60892 31500.00000 0 23247301.331 -5017375.967 -9257311.659 10 0 60892 32400.00000 0 24194356.154 -5244512.536 -6222858.275 10 0 60892 33300.00000 0 24744762.926 -5490827.821 -3067764.607 10 0 60892 34200.00000 0 24891665.743 -5700074.924 146771.484 10 0 60892 35100.00000 0 24641646.578 -5816549.381 3358473.206 10 0 60892 36000.00000 0 24014367.107 -5787668.993 6505183.790 10 0 60892 36900.00000 0 23041685.671 -5566423.222 9526058.155 10 0 60892 37800.00000 0 21766287.781 -5113589.791 12362725.097 10 0 60892 38700.00000 0 20239888.288 -4399626.096 14960398.743 10 0 60892 39600.00000 0 18521080.547 -3406156.850 17268919.212 10 0 60892 40500.00000 0 16672921.921 -2126996.103 19243704.044 10 0 60892 41400.00000 0 14760355.259 -568660.927 20846593.734 10 0 60892 42300.00000 0 12847572.300 1249645.181 22046576.624 10 0 60892 43200.00000 0 10995426.990 3296579.675 22820380.555 10 0 60892 44100.00000 0 9259004.440 5529718.121 23152920.857 10 0 60892 45000.00000 0 7685444.975 7897079.515 23037596.507 10 0 60892 45900.00000 0 6312112.355 10339059.143 22476428.672 10 0 60892 46800.00000 0 5165181.496 12790691.623 21480038.244 10 0 60892 47700.00000 0 4258704.211 15184152.958 20067461.549 10 0 60892 48600.00000 0 3594192.159 17451400.157 18265806.025 10 0 60892 49500.00000 0 3160735.199 19526840.610 16109750.394 10 0 60892 50400.00000 0 2935651.370 21349921.261 13640896.802 10 0 60892 51300.00000 0 2885642.562 22867529.992 10906985.214 10 0 60892 52200.00000 0 2968408.595 24036108.475 7960983.373 10 0 60892 53100.00000 0 3134652.729 24823386.842 4860068.516 10 0 60892 54000.00000 0 3330394.492 25209665.722 1664519.718 10 0 60892 54900.00000 0 3499491.910 25188589.727 -1563457.839 10 0 60892 55800.00000 0 3586265.539 24767377.732 -4760953.252 10 0 60892 56700.00000 0 3538111.529 23966498.367 -7865590.135 10 0 60892 57600.00000 0 3307990.839 22818802.962 -10816760.914 10 0 60892 58500.00000 0 2856686.449 21368151.696 -13556829.168 10 0 60892 59400.00000 0 2154730.168 19667590.746 -16032274.499 10 0 60892 60300.00000 0 1183914.700 17777157.817 -18194755.620 10 0 60892 61200.00000 0 -61675.446 15761409.633 -20002069.121 10 0 60892 62100.00000 0 -1575159.698 13686776.883 -21418983.867 10 0 60892 63000.00000 0 -3336906.529 11618859.458 -22417933.887 10 0 60892 63900.00000 0 -5315126.744 9619777.025 -22979555.842 10 0 60892 64800.00000 0 -7466990.181 7745687.197 -23093060.783 10 0 60892 65700.00000 0 -9740218.602 6044575.815 -22756433.537 10 0 60892 66600.00000 0 -12075087.271 4554411.712 -21976456.814 10 0 60892 67500.00000 0 -14406750.513 3301742.261 -20768560.792 10 0 60892 68400.00000 0 -16667793.113 2300786.763 -19156502.493 10 0 60892 69300.00000 0 -18790900.125 1553063.319 -17171882.664 10 0 60892 70200.00000 0 -20711533.162 1047561.979 -14853510.977 10 0 60892 71100.00000 0 -22370501.380 761453.833 -12246633.244 10 0 60892 72000.00000 0 -23716320.257 661303.169 -9402036.882 10 0 60892 72900.00000 0 -24707260.604 704728.871 -6375053.030 10 0 60892 73800.00000 0 -25313003.645 842442.690 -3224475.440 10 0 60892 74700.00000 0 -25515834.749 1020576.640 -11417.693 10 0 60892 75600.00000 0 -25311327.903 1183200.249 3201868.930 10 0 60892 76500.00000 0 -24708494.309 1274920.958 6353194.157 10 0 60892 77400.00000 0 -23729390.740 1243458.157 9381621.248 10 0 60892 78300.00000 0 -22408205.497 1042082.937 12228631.139 10 0 60892 79200.00000 0 -20789861.143 631821.697 14839236.872 10 0 60892 80100.00000 0 -18928192.698 -16668.091 17163028.200 10 0 60892 81000.00000 0 -16883776.993 -921627.947 19155127.838 10 0 60892 81900.00000 0 -14721502.684 -2089195.452 20777042.596 10 0 60892 82800.00000 0 -12507980.659 -3512910.360 21997394.556 10 0 60892 83700.00000 0 -10308900.651 -5173751.121 22792519.593 10 0 60892 84600.00000 0 -8186441.924 -7040701.699 23146922.679 10 0 60892 85500.00000 0 -6196843.584 -9071827.059 23053581.710 10 0 60893 0.00000 0 -4388233.853 -11215814.905 22514093.997 10 0 60893 900.00000 0 -2798806.216 -13413923.517 21538661.544 10 0 60893 1800.00000 0 -1455419.853 -15602254.658 20145914.975 10 0 60893 2700.00000 0 -372679.223 -17714263.488 18362576.806 10 0 60893 3600.00000 0 447466.049 -19683400.366 16222969.105 10 0 60893 4500.00000 0 1015584.422 -21445777.086 13768372.604 10 0 60893 5400.00000 0 1354093.268 -22942746.835 11046247.512 10 0 60893 6300.00000 0 1496084.194 -24123289.879 8109329.156 10 0 60893 7200.00000 0 1483691.182 -24946104.118 5014614.518 10 0 60893 8100.00000 0 1366069.675 -25381311.161 1822258.415 10 0 60893 9000.00000 0 1197071.809 -25411704.130 -1405599.472 10 0 60893 9900.00000 0 1032716.645 -25033482.343 -4606053.434 10 0 60893 10800.00000 0 928563.761 -24256439.649 -7716671.638 10 0 60893 11700.00000 0 937103.347 -23103596.555 -10676731.364 10 0 60893 12600.00000 0 1105275.778 -21610290.216 -13428423.528 10 0 60893 13500.00000 0 1472228.450 -19822759.945 -15918000.946 10 0 60893 14400.00000 0 2067407.564 -17796287.781 -18096845.939 10 0 60893 15300.00000 0 2909068.162 -15592973.049 -19922434.654 10 0 60893 16200.00000 0 4003267.497 -13279235.609 -21359177.901 10 0 60893 17100.00000 0 5343385.850 -10923154.054 -22379121.261 10 0 60893 18000.00000 0 6910195.926 -8591751.987 -22962490.354 10 0 60893 18900.00000 0 8672478.279 -6348347.303 -23098070.834 10 0 60893 19800.00000 0 10588156.670 -4250076.148 -22783416.258 10 0 60893 20700.00000 0 12605905.000 -2345695.284 -22024880.747 10 0 60893 21600.00000 0 14667157.509 -673754.119 -20837477.008 10 0 60893 22500.00000 0 16708436.968 738788.607 -19244563.881 10 0 60893 23400.00000 0 18663902.359 1877447.691 -17277370.925 10 0 60893 24300.00000 0 20468008.702 2740559.663 -14974370.772 10 0 60893 25200.00000 0 22058167.329 3339084.809 -12380512.751 10 0 60893 26100.00000 0 23377295.341 3695874.558 -9546333.964 10 0 60893 27000.00000 0 24376148.135 3844438.185 -6526966.070 10 0 60893 27900.00000 0 25015338.377 3827263.518 -3381057.868 10 0 60893 28800.00000 0 25266958.310 3693764.684 -169635.123 10 0 60893 29700.00000 0 25115739.168 3497945.045 3045080.036 10 0 60893 30600.00000 0 24559700.914 3295874.822 6200867.445 10 0 60893 31500.00000 0 23610266.818 3143090.036 9236702.165 10 0 60893 32400.00000 0 22291839.486 3092022.085 12093920.470 10 0 60893 33300.00000 0 20640857.021 3189565.476 14717337.185 10 0 60893 34200.00000 0 18704369.189 3474885.061 17056294.187 10 0 60893 35100.00000 0 16538192.713 3977553.922 19065621.442 10 0 60893 36000.00000 0 14204721.710 4716099.259 20706493.746 10 0 60893 36900.00000 0 11770482.968 5697016.836 21947168.184 10 0 60893 37800.00000 0 9303535.789 6914295.418 22763589.505 10 0 60893 38700.00000 0 6870822.221 8349471.942 23139852.757 10 0 60893 39600.00000 0 4535575.478 9972216.648 23068514.753 10 0 60893 40500.00000 0 2354892.000 11741425.906 22550748.377 10 0 60893 41400.00000 0 377566.177 13606779.800 21596336.058 10 0 60893 42300.00000 0 -1357723.516 15510702.318 20223501.353 10 0 60893 43200.00000 0 -2823802.227 17390645.236 18458580.158 10 0 60893 44100.00000 0 -4005902.564 19181602.896 16335535.830 10 0 60893 45000.00000 0 -4902046.283 20818754.746 13895325.350 10 0 60893 45900.00000 0 -5522887.052 22240126.337 11185126.604 10 0 60893 46800.00000 0 -5891019.713 23389157.669 8257439.767 10 0 60893 47700.00000 0 -6039783.992 24217070.545 5169078.705 10 0 60893 48600.00000 0 -6011612.152 24684934.154 1980071.057 10 0 60893 49500.00000 0 -5855989.901 24765339.947 -1247511.962 10 0 60893 50400.00000 0 -5627116.902 24443612.878 -4450772.765 10 0 60893 51300.00000 0 -5381366.734 23718505.425 -7567226.907 10 0 60893 52200.00000 0 -5174655.385 22602342.766 -10536039.195 10 0 60893 53100.00000 0 -5059831.853 21120611.047 -13299230.335 10 0 60893 54000.00000 0 -5084203.830 19311004.753 -15802828.537 10 0 60893 54900.00000 0 -5287305.885 17221972.682 -17997941.625 10 0 60893 55800.00000 0 -5699007.123 14910823.763 -19841726.888 10 0 60893 56700.00000 0 -6338040.522 12441473.030 -21298238.390 10 0 60893 57600.00000 0 -7211017.822 9881923.440 -22339134.282 10 0 60893 58500.00000 0 -8311972.597 7301590.436 -22944229.882 10 0 60893 59400.00000 0 -9622451.267 4768582.498 -23101885.887 10 0 60893 60300.00000 0 -11112148.063 2347052.336 -22809224.695 10 0 60893 61200.00000 0 -12740056.598 94729.859 -22072171.586 10 0 60893 62100.00000 0 -14456088.672 -1939260.327 -20905321.154 10 0 60893 63000.00000 0 -16203091.159 -3716206.750 -19331633.010 10 0 60893 63900.00000 0 -17919175.151 -5209170.480 -17381964.105 10 0 60893 64800.00000 0 -19540258.645 -6403841.702 -15094448.257 10 0 60893 65700.00000 0 -21002715.423 -7298860.582 -12513736.265 10 0 60893 66600.00000 0 -22246018.722 -7905592.172 -9690112.640 10 0 60893 67500.00000 0 -23215269.002 -8247368.126 -6678507.133 10 0 60893 68400.00000 0 -23863500.428 -8358230.194 -3537421.037 10 0 60893 69300.00000 0 -24153670.366 -8281231.007 -327789.673 10 0 60893 70200.00000 0 -24060249.842 -8066365.860 2888196.691 10 0 60893 71100.00000 0 -23570349.798 -7768224.027 6048290.759 10 0 60893 72000.00000 0 -22684337.485 -7443459.289 9091382.177 10 0 60893 72900.00000 0 -21415918.516 -7148186.294 11958665.330 10 0 60893 73800.00000 0 -19791682.098 -6935411.841 14594759.525 10 0 60893 74700.00000 0 -17850128.929 -6852608.235 16948761.297 10 0 60893 75600.00000 0 -15640222.167 -6939529.602 18975210.174 10 0 60893 76500.00000 0 -13219521.060 -7226361.747 20634950.926 10 0 60893 77400.00000 0 -10651973.533 -7732282.339 21895877.260 10 0 60893 78300.00000 0 -8005457.563 -8464491.354 22733544.015 10 0 60893 79200.00000 0 -5349171.162 -9417752.625 23131637.092 10 0 60893 80100.00000 0 -2750976.859 -10574466.582 23082292.611 10 0 60893 81000.00000 0 -274808.462 -11905272.751 22586259.094 10 0 60893 81900.00000 0 2021754.442 -13370159.055 21652898.960 10 0 60893 82800.00000 0 4089645.189 -14920034.111 20300028.073 10 0 60893 83700.00000 0 5890113.323 -16498699.583 18553594.756 10 0 60893 84600.00000 0 7396097.892 -18045142.725 16447202.410 10 0 60893 85500.00000 0 8593113.300 -19496055.339 14021482.723 99